Location: Hurstbourne Priors
(51.2000°N, 1.3667°W)
Time: 20:01:52
(UTC+00:00)

Transit 4A - Pass Details

Date: 27 April 2021
Orbit: 870 x 974 km, 66.8° (Epoch: 09 May)

Event Time Altitude Azimuth Distance (km) Brightness Sun altitude
Rises 05:37:03 0° 322° (NW) 3,530 10.7 6.8°
Reaches altitude 10° 05:39:38 10° 326° (NW) 2,572 10.0 7.2°
Maximum altitude 05:45:30 60° 46° (NE) 1,008 8.7 8.1°
Drops below altitude 10° 05:51:15 10° 126° (SE) 2,518 10.9 9.0°
Sets 05:53:45 0° 130° (SE) 3,450 11.5 9.4°
